Regional Weather Roundup
Issued by NWS

Home | Current Version | Previous Version | Graphics & Text | Print | Product List | Glossary On
Versions: 1 2 3 4 5 6 7 8 9 10 11 12 13 14 15 16 17 18 19 20 21 22 23 24 25 26 27 28 29 30 31 32 33 34 35 36 37 38 39 40 41 42 43 44 45 46 47 48 49 50
000
ASUS43 KMKX 220621
RWRWI

WISCONSIN REGIONAL WEATHER ROUNDUP
NATIONAL WEATHER SERVICE MILWAUKEE/SULLIVAN WI
100 AM CDT SAT JUL 22 2017

NOTE: "FAIR" INDICATES FEW OR NO CLOUDS BELOW 12,000 FEET WITH NO
SIGNIFICANT WEATHER AND/OR OBSTRUCTIONS TO VISIBILITY.

WIZ001-002-006>008-014>016-023>028-220700-
NORTHWEST WISCONSIN

CITY           SKY/WX    TMP DP  RH WIND       PRES   REMARKS
SUPERIOR ARPT  NOT AVBL
ASHLAND        CLOUDY    60  59  96 N6        29.77S FOG
6HR MIN TEMP:  61; 6HR MAX TEMP:  75; 6HR PCP:  0.30;

HAYWARD        CLOUDY    68  64  87 VRB5      29.77F
6HR MIN TEMP:  64; 6HR MAX TEMP:  77; 6HR PCP:  1.16;

SIREN          CLOUDY    65  63  92 S5        29.78F
6HR MIN TEMP:  65; 6HR MAX TEMP:  76; 6HR PCP:  0.39;

CUMBERLAND     PTCLDY    63  61  94 SW5       29.81F
RICE LAKE      PTCLDY    64  63  95 SE7       29.81F
6HR MIN TEMP:  65; 6HR MAX TEMP:  76; 6HR PCP:  0.16;

CHETEK         PTCLDY    64  64 100 MISG      29.80F
6HR MIN TEMP:  64; 6HR MAX TEMP:  76; 6HR PCP:  0.04;

LADYSMITH      CLOUDY    65  64  94 SE3       29.80F
6HR MIN TEMP:  65; 6HR MAX TEMP:  77; 6HR PCP:  0.01;

EAU CLAIRE     CLEAR     69  63  81 CALM      29.83F
6HR MIN TEMP:  67; 6HR MAX TEMP:  76;

MENOMONIE      CLEAR     66  64  94 S5        29.83F
6HR MIN TEMP:  69; 6HR MAX TEMP:  78;

NEW RICHMOND   PTCLDY    66  63  91 CALM      29.83F
6HR MIN TEMP:  66; 6HR MAX TEMP:  78;

OSCEOLA        PTCLDY    66  66 100 S9        29.80F
6HR MIN TEMP:  66; 6HR MAX TEMP:  80; 6HR PCP:  0.01;

$$

WIZ003>005-009-010-017-018-220700-
NORTH CENTRAL WISCONSIN

CITY           SKY/WX    TMP DP  RH WIND       PRES   REMARKS
MANITOWISH WTR CLOUDY    66  66 100 S5        29.79F
6HR MIN TEMP:  67; 6HR MAX TEMP:  79;

ARBOR VITAE    MOCLDY    69  67  93 SE3       29.81F
6HR MIN TEMP:  67; 6HR MAX TEMP:  78;

WOODRUFF       MOCLDY    69  67  93 SE3       29.81F
6HR MIN TEMP:  67; 6HR MAX TEMP:  78;

RHINELANDER    LGT RAIN  66  65  96 S5        29.86F
6HR MIN TEMP:  64; 6HR MAX TEMP:  77; 6HR PCP: TRACE;

EAGLE RIVER    CLOUDY    67  60  78 S3        29.83F
6HR MIN TEMP:  67; 6HR MAX TEMP:  78;

LAND O LAKES   CLOUDY    68  63  84 S5        29.84F
6HR MIN TEMP:  69; 6HR MAX TEMP:  81;

PHILLIPS       CLOUDY    66  66 100 S3        29.77F
6HR MIN TEMP:  66; 6HR MAX TEMP:  75; 6HR PCP:  0.07;

TOMAHAWK         N/A     64  63  94 CALM      29.86F
6HR MIN TEMP:  63; 6HR MAX TEMP:  76;

MEDFORD        CLOUDY    65  64  96 E7        29.86F
6HR MIN TEMP:  63; 6HR MAX TEMP:  74;

MERRILL        MOCLDY    64  64 100 S3        29.89S
6HR MIN TEMP:  63; 6HR MAX TEMP:  79;

$$

WIZ029-030-035-036-043>047-220700-
CENTRAL WISCONSIN

CITY           SKY/WX    TMP DP  RH WIND       PRES   REMARKS
WAUSAU         CLOUDY    67  66  97 E5        29.87R
6HR MIN TEMP:  65; 6HR MAX TEMP:  76; 6HR PCP:  0.21;

MOSINEE        CLOUDY    64  64 100 E3        29.89F
MARSHFIELD     CLOUDY    66  64  93 NW3       29.88R FOG
6HR MIN TEMP:  65; 6HR MAX TEMP:  74;

STEVENS POINT  CLOUDY    64  64 100 CALM      29.89S
6HR MIN TEMP:  64; 6HR MAX TEMP:  71;

WAUPACA        CLOUDY    67  66  94 CALM      29.89R
6HR MIN TEMP:  66; 6HR MAX TEMP:  76;

WAUTOMA        CLOUDY    66  65  96 CALM      29.87S
6HR MIN TEMP:  66; 6HR MAX TEMP:  72;

WISC RAPIDS    CLOUDY    67  67 100 CALM      29.88S FOG
6HR MIN TEMP:  67; 6HR MAX TEMP:  74; 6HR PCP: TRACE;

CAMP DOUGLAS   CLOUDY    68  68 100 CALM      29.86R
6HR MIN TEMP:  68; 6HR MAX TEMP:  71; 6HR PCP: TRACE;

$$

WIZ011>013-019>022-031-037>040-048>050-220700-
NORTHEAST WISCONSIN

CITY           SKY/WX    TMP DP  RH WIND       PRES   REMARKS
ANTIGO         PTCLDY    60  60  99 SW3       29.90F
6HR MIN TEMP:  60; 6HR MAX TEMP:  75;

SHAWANO        CLOUDY    71  62  73 CALM      29.87S
6HR MIN TEMP:  67; 6HR MAX TEMP:  80;

OCONTO         PTCLDY    63  61  96 CALM      29.86R
6HR MIN TEMP:  62; 6HR MAX TEMP:  78;

STURGEON BAY     N/A     69  60  73 S13       29.86R
6HR MIN TEMP:  69; 6HR MAX TEMP:  77;

GREEN BAY      LGT RAIN  70  67  90 S6        29.88S
6HR MIN TEMP:  69; 6HR MAX TEMP:  76; 6HR PCP: TRACE;

MANITOWOC      CLOUDY    69  59  70 S10       29.89R
6HR MIN TEMP:  69; 6HR MAX TEMP:  75; 6HR PCP: TRACE;

APPLETON       CLOUDY    68  57  68 SE8       29.86F
CLINTONVILLE   CLOUDY    68  61  77 CALM      29.87F
OSHKOSH        CLOUDY    66  61  84 SE7       29.85F
6HR MIN TEMP:  66; 6HR MAX TEMP:  71;

$$

WIZ032>034-041-042-053>061-220700-
SOUTHWEST WISCONSIN

CITY           SKY/WX    TMP DP  RH WIND       PRES   REMARKS
LA CROSSE      CLOUDY    73  70  90 E7        29.84R
6HR MIN TEMP:  73; 6HR MAX TEMP:  75; 6HR PCP:  0.04;

SPARTA         CLOUDY    67  67  99 CALM      29.85F
6HR MIN TEMP:  65; 6HR MAX TEMP:  68;

VIROQUA        CLOUDY    69  69 100 E8        29.83F
6HR MIN TEMP:  69; 6HR MAX TEMP:  71;

BOSCOBEL       CLOUDY    73  71  93 E6        29.81F
6HR MIN TEMP:  72; 6HR MAX TEMP:  74; 6HR PCP:  0.01;

PRAIRIE DU CHI CLOUDY    71  70  96 CALM      29.79F
6HR MIN TEMP:  70; 6HR MAX TEMP:  71; 6HR PCP:  0.12;

PLATTEVILLE    CLOUDY    70  70 100 SW5       29.84S
6HR MIN TEMP:  70; 6HR MAX TEMP:  73; 6HR PCP:  1.00;

$$

WIZ056-057-062-063-064-067-068-220700-
SOUTH CENTRAL WISCONSIN

CITY           SKY/WX    TMP DP  RH WIND       PRES   REMARKS
REEDSBURG      CLOUDY    68  68 100 E3        29.84F
6HR MIN TEMP:  67; 6HR MAX TEMP:  70; 6HR PCP:  0.51;

BARABOO/DELLS  CLOUDY    66  64  94 CALM      29.86R
6HR MIN TEMP:  66; 6HR MAX TEMP:  71; 6HR PCP:  0.58;

LONE ROCK      CLOUDY    70  68  93 E6        29.83R
6HR MIN TEMP:  70; 6HR MAX TEMP:  73; 6HR PCP:  0.06;

MINERAL POINT  LGT RAIN  72  72 100 NE6       29.83S
MADISON        CLOUDY    68  66  93 E7        29.84F
6HR MIN TEMP:  68; 6HR MAX TEMP:  72; 6HR PCP:  0.94;

MIDDLETON      CLOUDY    68  68 100 NE6       29.84F
6HR MIN TEMP:  68; 6HR MAX TEMP:  73; 6HR PCP:  0.51;

WATERTOWN      CLOUDY    64  64 100 E9        29.86S
6HR MIN TEMP:  64; 6HR MAX TEMP:  69;

MONROE         TSTM      70  70 100 S8        29.82S
JANESVILLE     CLOUDY    72  72 100 SW10      29.81F
$$

WIZ051-052-058>065-066-070>072-220700-
SOUTHEAST WISCONSIN

CITY           SKY/WX    TMP DP  RH WIND       PRES   REMARKS
MILWAUKEE      CLOUDY    70  67  90 N9        29.86R
6HR MIN TEMP:  66; 6HR MAX TEMP:  75; 6HR PCP:  0.29;

WAUKESHA       CLOUDY    63  59  88 NE6       29.88R
MILWAUKEE/TIMM CLOUDY    64  59  82 CALM      29.88R
RACINE         CLOUDY    72  71  97 SE7       29.87R
6HR MIN TEMP:  70; 6HR MAX TEMP:  73;

KENOSHA        CLOUDY    73  71  93 CALM      29.84R
6HR MIN TEMP:  71; 6HR MAX TEMP:  75; 6HR PCP:  0.34;

FOND DU LAC    CLOUDY    65  60  84 SE8       29.86F
6HR MIN TEMP:  65; 6HR MAX TEMP:  71; 6HR PCP:  0.02;

SHEBOYGAN      CLOUDY    64  61  90 CALM      29.87F
6HR MIN TEMP:  63; 6HR MAX TEMP:  75; 6HR PCP:  0.23;

WEST BEND      LGT RAIN  63  63 100 E5        29.88S
JUNEAU         DRIZZLE   63  62  96 E6        29.87F
6HR MIN TEMP:  63; 6HR MAX TEMP:  69;

$$

LSZ147-162-220700-
LAKE SUPERIOR

STATION/POSITION TIME  TEMP    WIND        PRES    WAVE
                       AIR SEA DIR/SP/G            HT/PER
                 (UTC) (F)     (DEG/KT/KT) (MB)    (FT/S)
W MID LAKE BUOY  0550   53 47  360/ 12/ 14 1009.1F   1
DEVILS ISLAND    0600   59      40/ 11/ 12 1008.5F
PORT WING        0330   63     120/  7/ 15 1008.5
SAXON HARBOR     0530   65     230/  2/  5 1007.1F
$$

LMZ867-665-643>646-220700-
LAKE MICHIGAN

STATION/POSITION TIME  TEMP    WIND        PRES    WAVE
                       AIR SEA DIR/SP/G            HT/PER
                 (UTC) (F)     (DEG/KT/KT) (MB)    (FT/S)
CHAMBERS ISLAND  0540   71     170/  3/  7 1010.2F
S GREEN



USA.gov is the U.S. government's official web portal to all federal, state and local government web resources and services.